K5SOI Weather Reports


time (UTC)temp
C
wind
direction
speed
KPH
gust
KPH
rain 1hr
cm
rain 24hr
cm
rain mn
cm
humidity
%
barometer
mb
20260504100524 14 119 3.2 8.0 0.00 0.00 0.00 93 1015.0
20260504081522 15 118 4.8 8.0 0.00 0.00 0.00 90 1015.7
20260504081023 15 113 3.2 8.0 0.00 0.00 0.00 91 1015.8
20260504080522 15 113 4.8 8.0 0.00 0.00 0.00 92 1015.8
20260504050521 16 141 6.4 9.7 0.00 0.00 0.00 87 1018.0
20260504050021 16 132 8.0 9.7 0.00 0.00 0.00 87 1018.0
20260504045020 16 130 6.4 9.7 0.00 0.00 0.00 87 1018.0
20260504044520 16 128 8.0 9.7 0.00 0.00 0.00 88 1018.2
20260504044021 16 132 8.0 9.7 0.00 0.00 0.00 87 1018.2
20260504043520 15 133 8.0 9.7 0.00 0.00 0.00 88 1018.1
20260504042520 16 146 9.7 11.3 0.00 0.00 0.00 87 1018.3
20260504042020 16 138 9.7 11.3 0.00 0.00 0.00 87 1018.2
20260504041520 16 148 8.0 9.7 0.00 0.00 0.00 87 1018.3
20260504041020 16 138 8.0 9.7 0.00 0.00 0.00 88 1018.4
20260504040520 16 141 4.8 4.8 0.00 0.00 0.00 89 1018.4
20260504040020 16 149 4.8 8.0 0.00 0.00 0.00 88 1018.4
20260504035519 16 135 4.8 9.7 0.00 0.00 0.00 88 1018.3
20260504035020 16 131 8.0 9.7 0.00 0.00 0.00 88 1018.2
20260504034519 16 132 8.0 9.7 0.00 0.00 0.00 87 1018.2
20260504033019 16 139 6.4 8.0 0.00 0.00 0.00 86 1018.2
20260504032019 16 145 8.0 9.7 0.00 0.00 0.00 86 1018.2
20260504031519 16 149 8.0 9.7 0.00 0.00 0.00 85 1018.1
20260504030019 16 139 4.8 4.8 0.00 0.00 0.00 85 1018.1
20260504024519 17 135 4.8 9.7 0.00 0.00 0.00 82 1018.0
20260504024018 17 144 8.0 9.7 0.00 0.00 0.00 82 1018.0
20260504023519 17 126 4.8 8.0 0.00 0.00 0.00 82 1017.8
20260504023019 17 115 8.0 11.3 0.00 0.00 0.00 81 1017.6
20260504022519 17 118 8.0 9.7 0.00 0.00 0.00 82 1017.6
20260504022018 17 128 8.0 9.7 0.00 0.00 0.00 81 1017.7
20260504021518 17 129 4.8 8.0 0.00 0.00 0.00 80 1017.7
20260504021018 17 122 6.4 9.7 0.00 0.00 0.00 79 1017.7
20260504020518 17 119 8.0 9.7 0.00 0.00 0.00 80 1017.6
20260504020019 17 115 4.8 8.0 0.00 0.00 0.00 79 1017.7
20260504015518 17 119 4.8 8.0 0.00 0.00 0.00 79 1017.7
20260504015018 17 114 8.0 9.7 0.00 0.00 0.00 79 1017.6
20260504014517 17 113 8.0 9.7 0.00 0.00 0.00 79 1017.5
20260504014019 17 114 6.4 9.7 0.00 0.00 0.00 79 1017.5
20260504013518 18 114 8.0 8.0 0.00 0.00 0.00 77 1017.5
20260504013018 18 113 8.0 9.7 0.00 0.00 0.00 76 1017.6
20260504012518 18 113 8.0 9.7 0.00 0.00 0.00 74 1017.5
20260504012018 18 111 8.0 9.7 0.00 0.00 0.00 73 1017.5
20260504011518 19 114 8.0 9.7 0.00 0.00 0.00 71 1017.5
20260504010017 20 109 11.3 14.5 0.00 0.00 0.00 67 1017.5
20260504005517 20 111 12.9 16.1 0.00 0.00 0.00 65 1017.5
20260504005017 21 119 11.3 19.3 0.00 0.00 0.00 63 1017.7
20260504004018 21 112 12.9 19.3 0.00 0.00 0.00 61 1017.5
20260504003017 22 114 12.9 19.3 0.00 0.00 0.00 61 1017.7
20260504002017 22 108 16.1 24.1 0.00 0.00 0.00 58 1017.7
20260504001516 22 106 17.7 22.5 0.00 0.00 0.00 55 1017.7
20260504001017 22 112 17.7 24.1 0.00 0.00 0.00 54 1017.7
20260504000017 23 107 19.3 24.1 0.00 0.00 0.00 51 1017.7
20260503233516 24 108 19.3 22.5 0.00 0.00 0.00 49 1017.6
20260503233017 23 98 20.9 24.1 0.00 0.00 0.00 47 1017.6
20260503232517 24 94 19.3 24.1 0.00 0.00 0.00 48 1017.7
20260503231516 24 94 19.3 29.0 0.00 0.00 0.00 48 1017.7
20260503231016 25 113 14.5 22.5 0.00 0.00 0.00 48 1017.8
20260503230516 24 108 19.3 29.0 0.00 0.00 0.00 48 1017.8
20260503230016 25 109 17.7 25.7 0.00 0.00 0.00 50 1017.9
20260503225515 25 105 16.1 22.5 0.00 0.00 0.00 49 1018.0
20260503225017 25 104 19.3 24.1 0.00 0.00 0.00 49 1017.9
20260503224516 25 111 17.7 22.5 0.00 0.00 0.00 49 1018.0
20260503224016 25 132 16.1 22.5 0.00 0.00 0.00 50 1018.0
20260503223516 25 137 16.1 24.1 0.00 0.00 0.00 50 1018.0
20260503222516 25 128 16.1 22.5 0.00 0.00 0.00 49 1018.1
20260503221516 26 127 17.7 22.5 0.00 0.00 0.00 50 1018.2
20260503221015 25 117 16.1 22.5 0.00 0.00 0.00 46 1018.2
20260503220515 25 121 16.1 20.9 0.00 0.00 0.00 46 1018.2
20260503220015 26 128 14.5 20.9 0.00 0.00 0.00 44 1018.3
20260503215515 26 117 14.5 20.9 0.00 0.00 0.00 45 1018.5
20260503215016 26 126 14.5 22.5 0.00 0.00 0.00 44 1018.5
20260503214515 26 123 16.1 19.3 0.00 0.00 0.00 43 1018.6
20260503213515 26 126 14.5 19.3 0.00 0.00 0.00 43 1018.7
20260503213015 26 112 14.5 20.9 0.00 0.00 0.00 43 1018.8
20260503212516 26 124 16.1 20.9 0.00 0.00 0.00 44 1019.0
20260503212015 26 151 16.1 20.9 0.00 0.00 0.00 44 1019.0
20260503211015 25 95 14.5 29.0 0.00 0.00 0.00 44 1019.1
20260503210515 26 99 14.5 20.9 0.00 0.00 0.00 46 1019.2
20260503210014 26 119 14.5 22.5 0.00 0.00 0.00 46 1019.3
20260503205514 25 137 12.9 25.7 0.00 0.00 0.00 46 1019.3
20260503205015 26 136 14.5 22.5 0.00 0.00 0.00 46 1019.3
20260503204515 26 151 12.9 25.7 0.00 0.00 0.00 46 1019.6
20260503203015 26 139 16.1 24.1 0.00 0.00 0.00 46 1019.8
20260503202514 25 154 11.3 24.1 0.00 0.00 0.00 45 1019.8
20260503202014 26 135 11.3 24.1 0.00 0.00 0.00 46 1019.9
20260503201014 27 112 14.5 29.0 0.00 0.00 0.00 44 1020.0
20260503195514 26 127 14.5 22.5 0.00 0.00 0.00 44 1020.1
20260503194513 26 110 19.3 25.7 0.00 0.00 0.00 41 1020.2
20260503192513 26 148 14.5 29.0 0.00 0.00 0.00 45 1020.5
20260503192013 26 145 9.7 16.1 0.00 0.00 0.00 46 1020.5
20260503191014 26 96 9.7 19.3 0.00 0.00 0.00 43 1020.5
20260503190513 26 150 8.0 20.9 0.00 0.00 0.00 41 1020.6
20260503173013 26 45 9.7 16.1 0.00 0.00 0.00 45 1022.2
20260503172512 25 73 12.9 19.3 0.00 0.00 0.00 45 1022.3
20260503151010 23 87 8.0 12.9 0.00 0.00 0.00 58 1022.8
20260503150511 22 76 8.0 11.3 0.00 0.00 0.00 62 1022.8
20260503110507 11 311 0.0 1.6 0.00 0.00 0.00 97 1020.9